����������;��������(kWh)
2017-06-05 00:00;83,15
2017-06-05 00:15;82,05
2017-06-05 00:30;81,1
2017-06-05 00:45;91,15
2017-06-05 01:00;95,15
2017-06-05 01:15;90,5
2017-06-05 01:30;88,5
2017-06-05 01:45;86,5
2017-06-05 02:00;87,9
2017-06-05 02:15;87,75
2017-06-05 02:30;87,6
2017-06-05 02:45;88,45
2017-06-05 03:00;89,25
2017-06-05 03:15;86,1
2017-06-05 03:30;86,35
2017-06-05 03:45;88,75
2017-06-05 04:00;87,1
2017-06-05 04:15;85,8
2017-06-05 04:30;87
2017-06-05 04:45;88,35
2017-06-05 05:00;88,6
2017-06-05 05:15;89,95
2017-06-05 05:30;91,7
2017-06-05 05:45;92,65
2017-06-05 06:00;88,85
2017-06-05 06:15;86,55
2017-06-05 06:30;86,75
2017-06-05 06:45;81,5
2017-06-05 07:00;81,4
2017-06-05 07:15;85,95
2017-06-05 07:30;83,35
2017-06-05 07:45;79,85
2017-06-05 08:00;85
2017-06-05 08:15;85,2
2017-06-05 08:30;86,5
2017-06-05 08:45;90,15
2017-06-05 09:00;91,8
2017-06-05 09:15;90,4
2017-06-05 09:30;95,7
2017-06-05 09:45;98,65
2017-06-05 10:00;104,8
2017-06-05 10:15;107,7
2017-06-05 10:30;103,7
2017-06-05 10:45;105,75
2017-06-05 11:00;108,6
2017-06-05 11:15;104,5
2017-06-05 11:30;109,25
2017-06-05 11:45;111,4
2017-06-05 12:00;113,15
2017-06-05 12:15;110,8
2017-06-05 12:30;112,25
2017-06-05 12:45;110,15
2017-06-05 13:00;115
2017-06-05 13:15;109,55
2017-06-05 13:30;116
2017-06-05 13:45;119,7
2017-06-05 14:00;117,6
2017-06-05 14:15;115,35
2017-06-05 14:30;117,15
2017-06-05 14:45;121,8
2017-06-05 15:00;117,05
2017-06-05 15:15;118,65
2017-06-05 15:30;114,3
2017-06-05 15:45;110,05
2017-06-05 16:00;112,95
2017-06-05 16:15;109,15
2017-06-05 16:30;112,2
2017-06-05 16:45;114,45
2017-06-05 17:00;112
2017-06-05 17:15;108,25
2017-06-05 17:30;112,45
2017-06-05 17:45;115,4
2017-06-05 18:00;113,7
2017-06-05 18:15;109,2
2017-06-05 18:30;109,55
2017-06-05 18:45;109,8
2017-06-05 19:00;111,75
2017-06-05 19:15;106,9
2017-06-05 19:30;109,5
2017-06-05 19:45;109
2017-06-05 20:00;105,15
2017-06-05 20:15;101,9
2017-06-05 20:30;107,65
2017-06-05 20:45;111,1
2017-06-05 21:00;114,3
2017-06-05 21:15;111,7
2017-06-05 21:30;111,25
2017-06-05 21:45;107,75
2017-06-05 22:00;97
2017-06-05 22:15;97,35
2017-06-05 22:30;98,5
2017-06-05 22:45;101,8
2017-06-05 23:00;99,95
2017-06-05 23:15;95,5
2017-06-05 23:30;90,85
2017-06-05 23:45;89,9
2017-06-06 00:00;91,35
2017-06-06 00:15;89,8
2017-06-06 00:30;91,65
2017-06-06 00:45;90,65
2017-06-06 01:00;89,9
2017-06-06 01:15;89,1
2017-06-06 01:30;87,65
2017-06-06 01:45;84,75
2017-06-06 02:00;85,95
2017-06-06 02:15;85,7
2017-06-06 02:30;87,05
2017-06-06 02:45;84,9
2017-06-06 03:00;82,6
2017-06-06 03:15;81,2
2017-06-06 03:30;80,6
2017-06-06 03:45;80,8
2017-06-06 04:00;79,6
2017-06-06 04:15;78
2017-06-06 04:30;80,2
2017-06-06 04:45;79,4
2017-06-06 05:00;82,95
2017-06-06 05:15;84
2017-06-06 05:30;87,95
2017-06-06 05:45;89,9
2017-06-06 06:00;87,55
2017-06-06 06:15;84,95
2017-06-06 06:30;87,1
2017-06-06 06:45;91,05
2017-06-06 07:00;85,95
2017-06-06 07:15;91,1
2017-06-06 07:30;92,2
2017-06-06 07:45;97,35
2017-06-06 08:00;94,95
2017-06-06 08:15;98,55
2017-06-06 08:30;105
2017-06-06 08:45;118,45
2017-06-06 09:00;124,95
2017-06-06 09:15;189,3
2017-06-06 09:30;178,65
2017-06-06 09:45;151,2
2017-06-06 10:00;153,25
2017-06-06 10:15;174,85
2017-06-06 10:30;200,45
2017-06-06 10:45;212,45
2017-06-06 11:00;195,25
2017-06-06 11:15;209,35
2017-06-06 11:30;199,7
2017-06-06 11:45;206,2
2017-06-06 12:00;208,3
2017-06-06 12:15;215,25
2017-06-06 12:30;216,55
2017-06-06 12:45;223,25
2017-06-06 13:00;221,5
2017-06-06 13:15;226,8
2017-06-06 13:30;227,05
2017-06-06 13:45;222,15
2017-06-06 14:00;220,45
2017-06-06 14:15;225,3
2017-06-06 14:30;223,6
2017-06-06 14:45;216,05
2017-06-06 15:00;215,95
2017-06-06 15:15;208,6
2017-06-06 15:30;207,05
2017-06-06 15:45;204,65
2017-06-06 16:00;203
2017-06-06 16:15;179,25
2017-06-06 16:30;170,55
2017-06-06 16:45;164,95
2017-06-06 17:00;164,85
2017-06-06 17:15;160,7
2017-06-06 17:30;155,35
2017-06-06 17:45;146,25
2017-06-06 18:00;155
2017-06-06 18:15;151,7
2017-06-06 18:30;146,35
2017-06-06 18:45;145,75
2017-06-06 19:00;144,7
2017-06-06 19:15;141,85
2017-06-06 19:30;135,6
2017-06-06 19:45;131,3
2017-06-06 20:00;122
2017-06-06 20:15;121,75
2017-06-06 20:30;126,2
2017-06-06 20:45;127,75
2017-06-06 21:00;125,95
2017-06-06 21:15;120,8
2017-06-06 21:30;118,3
2017-06-06 21:45;112,65
2017-06-06 22:00;109,1
2017-06-06 22:15;106,45
2017-06-06 22:30;101,7
2017-06-06 22:45;101,5
2017-06-06 23:00;102,6
2017-06-06 23:15;100,85
2017-06-06 23:30;97,35
2017-06-06 23:45;94,7
2017-06-07 00:00;91,1
2017-06-07 00:15;91,65
2017-06-07 00:30;90,85
2017-06-07 00:45;90,15
2017-06-07 01:00;89,95
2017-06-07 01:15;89,1
2017-06-07 01:30;88,25
2017-06-07 01:45;86,65
2017-06-07 02:00;88,2
2017-06-07 02:15;87,85
2017-06-07 02:30;91,15
2017-06-07 02:45;90,5
2017-06-07 03:00;88,85
2017-06-07 03:15;88,95
2017-06-07 03:30;89,55
2017-06-07 03:45;88,65
2017-06-07 04:00;88,65
2017-06-07 04:15;88,8
2017-06-07 04:30;88,95
2017-06-07 04:45;89,6
2017-06-07 05:00;90,15
2017-06-07 05:15;94,4
2017-06-07 05:30;96,25
2017-06-07 05:45;99,75
2017-06-07 06:00;93,5
2017-06-07 06:15;89,85
2017-06-07 06:30;96,25
2017-06-07 06:45;96,85
2017-06-07 07:00;96,3
2017-06-07 07:15;102,95
2017-06-07 07:30;155,7
2017-06-07 07:45;117,8
2017-06-07 08:00;116,45
2017-06-07 08:15;117,9
2017-06-07 08:30;118,95
2017-06-07 08:45;132,8
2017-06-07 09:00;135,95
2017-06-07 09:15;134,5
2017-06-07 09:30;143,55
2017-06-07 09:45;141,55
2017-06-07 10:00;144,8
2017-06-07 10:15;154,8
2017-06-07 10:30;161,6
2017-06-07 10:45;209,05
2017-06-07 11:00;207,25
2017-06-07 11:15;196,15
2017-06-07 11:30;199,45
2017-06-07 11:45;201,8
2017-06-07 12:00;198,1
2017-06-07 12:15;195,7
2017-06-07 12:30;196,75
2017-06-07 12:45;207,65
2017-06-07 13:00;210,2
2017-06-07 13:15;208
2017-06-07 13:30;209,05
2017-06-07 13:45;211,75
2017-06-07 14:00;213,9
2017-06-07 14:15;198,8
2017-06-07 14:30;192,35
2017-06-07 14:45;193,3
2017-06-07 15:00;193,7
2017-06-07 15:15;186,2
2017-06-07 15:30;175,25
2017-06-07 15:45;174
2017-06-07 16:00;177,9
2017-06-07 16:15;166,8
2017-06-07 16:30;157,75
2017-06-07 16:45;153,35
2017-06-07 17:00;151,05
2017-06-07 17:15;138,95
2017-06-07 17:30;141,45
2017-06-07 17:45;145,15
2017-06-07 18:00;142,7
2017-06-07 18:15;139,3
2017-06-07 18:30;129,05
2017-06-07 18:45;140,25
2017-06-07 19:00;126,55
2017-06-07 19:15;130,8
2017-06-07 19:30;127,75
2017-06-07 19:45;125,4
2017-06-07 20:00;117,4
2017-06-07 20:15;122,8
2017-06-07 20:30;125,1
2017-06-07 20:45;123,5
2017-06-07 21:00;124,1
2017-06-07 21:15;112,6
2017-06-07 21:30;112,85
2017-06-07 21:45;111,15
2017-06-07 22:00;101,9
2017-06-07 22:15;99,85
2017-06-07 22:30;101,1
2017-06-07 22:45;99,25
2017-06-07 23:00;98,6
2017-06-07 23:15;98,3
2017-06-07 23:30;95,35
2017-06-07 23:45;96,95
2017-06-08 00:00;94,05
2017-06-08 00:15;94,35
2017-06-08 00:30;94,15
2017-06-08 00:45;92,8
2017-06-08 01:00;93,7
2017-06-08 01:15;91,15
2017-06-08 01:30;90,85
2017-06-08 01:45;86,9
2017-06-08 02:00;83,7
2017-06-08 02:15;85,65
2017-06-08 02:30;84,3
2017-06-08 02:45;82,7
2017-06-08 03:00;84,1
2017-06-08 03:15;83,3
2017-06-08 03:30;82,4
2017-06-08 03:45;83,9
2017-06-08 04:00;82,9
2017-06-08 04:15;82,05
2017-06-08 04:30;81,9
2017-06-08 04:45;82,05
2017-06-08 05:00;82,8
2017-06-08 05:15;85,25
2017-06-08 05:30;90,35
2017-06-08 05:45;92,6
2017-06-08 06:00;89,15
2017-06-08 06:15;86,65
2017-06-08 06:30;94,4
2017-06-08 06:45;93,2
2017-06-08 07:00;84,65
2017-06-08 07:15;93,8
2017-06-08 07:30;146
2017-06-08 07:45;125,05
2017-06-08 08:00;113,9
2017-06-08 08:15;121,95
2017-06-08 08:30;123,7
2017-06-08 08:45;132,35
2017-06-08 09:00;132,9
2017-06-08 09:15;128,55
2017-06-08 09:30;134,5
2017-06-08 09:45;135,95
2017-06-08 10:00;142,35
2017-06-08 10:15;150,25
2017-06-08 10:30;146,3
2017-06-08 10:45;187,9
2017-06-08 11:00;189,6
2017-06-08 11:15;175,5
2017-06-08 11:30;189,75
2017-06-08 11:45;191,75
2017-06-08 12:00;118,25
2017-06-08 12:15;180,3
2017-06-08 12:30;182,4
2017-06-08 12:45;183,5
2017-06-08 13:00;175,9
2017-06-08 13:15;184,05
2017-06-08 13:30;181,95
2017-06-08 13:45;189,25
2017-06-08 14:00;184,8
2017-06-08 14:15;172,75
2017-06-08 14:30;188,7
2017-06-08 14:45;185,9
2017-06-08 15:00;165,55
2017-06-08 15:15;161,4
2017-06-08 15:30;167,3
2017-06-08 15:45;164,2
2017-06-08 16:00;158,6
2017-06-08 16:15;160,5
2017-06-08 16:30;157,35
2017-06-08 16:45;154,55
2017-06-08 17:00;156,25
2017-06-08 17:15;143,3
2017-06-08 17:30;139,55
2017-06-08 17:45;144,1
2017-06-08 18:00;143,65
2017-06-08 18:15;139,2
2017-06-08 18:30;125,65
2017-06-08 18:45;123,3
2017-06-08 19:00;121,35
2017-06-08 19:15;115,45
2017-06-08 19:30;117
2017-06-08 19:45;119,8
2017-06-08 20:00;117,1
2017-06-08 20:15;113,6
2017-06-08 20:30;114,2
2017-06-08 20:45;110,95
2017-06-08 21:00;113,4
2017-06-08 21:15;114,45
2017-06-08 21:30;116,8
2017-06-08 21:45;108,55
2017-06-08 22:00;103,05
2017-06-08 22:15;102,9
2017-06-08 22:30;101,7
2017-06-08 22:45;101,3
2017-06-08 23:00;101,9
2017-06-08 23:15;102
2017-06-08 23:30;99,75
2017-06-08 23:45;97,5
2017-06-09 00:00;97,45
2017-06-09 00:15;97,9
2017-06-09 00:30;97,25
2017-06-09 00:45;95,45
2017-06-09 01:00;93,9
2017-06-09 01:15;90,35
2017-06-09 01:30;86
2017-06-09 01:45;86,1
2017-06-09 02:00;88,75
2017-06-09 02:15;88,25
2017-06-09 02:30;85,15
2017-06-09 02:45;89,6
2017-06-09 03:00;86,45
2017-06-09 03:15;85,55
2017-06-09 03:30;87
2017-06-09 03:45;85
2017-06-09 04:00;84,75
2017-06-09 04:15;86,1
2017-06-09 04:30;85,55
2017-06-09 04:45;84,95
2017-06-09 05:00;86,2
2017-06-09 05:15;90,75
2017-06-09 05:30;92,4
2017-06-09 05:45;92,15
2017-06-09 06:00;91,3
2017-06-09 06:15;85,1
2017-06-09 06:30;83,6
2017-06-09 06:45;96,6
2017-06-09 07:00;91,3
2017-06-09 07:15;92,2
2017-06-09 07:30;147,15
2017-06-09 07:45;101,3
2017-06-09 08:00;115,75
2017-06-09 08:15;127,05
2017-06-09 08:30;126,45
2017-06-09 08:45;133,2
2017-06-09 09:00;139,95
2017-06-09 09:15;139,3
2017-06-09 09:30;144,55
2017-06-09 09:45;157,4
2017-06-09 10:00;155,7
2017-06-09 10:15;157,9
2017-06-09 10:30;158,1
2017-06-09 10:45;195,05
2017-06-09 11:00;198,2
2017-06-09 11:15;175,25
2017-06-09 11:30;189,35
2017-06-09 11:45;197,95
2017-06-09 12:00;197,2
2017-06-09 12:15;197,95
2017-06-09 12:30;194,95
2017-06-09 12:45;200,25
2017-06-09 13:00;203,25
2017-06-09 13:15;205,5
2017-06-09 13:30;205,85
2017-06-09 13:45;198,35
2017-06-09 14:00;199
2017-06-09 14:15;211,85
2017-06-09 14:30;213,05
2017-06-09 14:45;205,3
2017-06-09 15:00;206,25
2017-06-09 15:15;203,3
2017-06-09 15:30;203,3
2017-06-09 15:45;200,05
2017-06-09 16:00;194,4
2017-06-09 16:15;183,95
2017-06-09 16:30;170,6
2017-06-09 16:45;171,75
2017-06-09 17:00;163,1
2017-06-09 17:15;156,8
2017-06-09 17:30;150,55
2017-06-09 17:45;150,8
2017-06-09 18:00;153,6
2017-06-09 18:15;143,65
2017-06-09 18:30;146,3
2017-06-09 18:45;140,05
2017-06-09 19:00;138,15
2017-06-09 19:15;131,8
2017-06-09 19:30;122,1
2017-06-09 19:45;127,55
2017-06-09 20:00;117,45
2017-06-09 20:15;114,55
2017-06-09 20:30;115,9
2017-06-09 20:45;115,35
2017-06-09 21:00;116,9
2017-06-09 21:15;113,9
2017-06-09 21:30;114,8
2017-06-09 21:45;115,3
2017-06-09 22:00;107,8
2017-06-09 22:15;100,95
2017-06-09 22:30;103,5
2017-06-09 22:45;103,35
2017-06-09 23:00;101,3
2017-06-09 23:15;103,05
2017-06-09 23:30;97,2
2017-06-09 23:45;96,9
2017-06-10 00:00;98,1
2017-06-10 00:15;95,3
2017-06-10 00:30;96,2
2017-06-10 00:45;97,3
2017-06-10 01:00;95,65
2017-06-10 01:15;90,95
2017-06-10 01:30;89,45
2017-06-10 01:45;88,15
2017-06-10 02:00;89,5
2017-06-10 02:15;88,8
2017-06-10 02:30;88,1
2017-06-10 02:45;89,4
2017-06-10 03:00;88,2
2017-06-10 03:15;87,6
2017-06-10 03:30;88,2
2017-06-10 03:45;91,55
2017-06-10 04:00;91,55
2017-06-10 04:15;89,9
2017-06-10 04:30;91,6
2017-06-10 04:45;91,65
2017-06-10 05:00;91,6
2017-06-10 05:15;90,8
2017-06-10 05:30;91,7
2017-06-10 05:45;92,55
2017-06-10 06:00;93,45
2017-06-10 06:15;93,85
2017-06-10 06:30;91,5
2017-06-10 06:45;89,2
2017-06-10 07:00;89,35
2017-06-10 07:15;87,75
2017-06-10 07:30;87
2017-06-10 07:45;88,9
2017-06-10 08:00;88,25
2017-06-10 08:15;84,7
2017-06-10 08:30;85,9
2017-06-10 08:45;84,55
2017-06-10 09:00;88,1
2017-06-10 09:15;93,6
2017-06-10 09:30;90
2017-06-10 09:45;90,25
2017-06-10 10:00;94,85
2017-06-10 10:15;93,5
2017-06-10 10:30;96,6
2017-06-10 10:45;98
2017-06-10 11:00;100,85
2017-06-10 11:15;102,7
2017-06-10 11:30;99,95
2017-06-10 11:45;106,05
2017-06-10 12:00;103,45
2017-06-10 12:15;99,6
2017-06-10 12:30;105,65
2017-06-10 12:45;100,7
2017-06-10 13:00;103,4
2017-06-10 13:15;99,7
2017-06-10 13:30;103,25
2017-06-10 13:45;102,8
2017-06-10 14:00;102,05
2017-06-10 14:15;106,85
2017-06-10 14:30;108,7
2017-06-10 14:45;105,3
2017-06-10 15:00;104,7
2017-06-10 15:15;101,45
2017-06-10 15:30;102,45
2017-06-10 15:45;103,65
2017-06-10 16:00;101,9
2017-06-10 16:15;100,9
2017-06-10 16:30;106,45
2017-06-10 16:45;104,5
2017-06-10 17:00;107,15
2017-06-10 17:15;104,35
2017-06-10 17:30;106,4
2017-06-10 17:45;103,15
2017-06-10 18:00;104,7
2017-06-10 18:15;107,05
2017-06-10 18:30;105,2
2017-06-10 18:45;102,45
2017-06-10 19:00;107,65
2017-06-10 19:15;107,5
2017-06-10 19:30;111,3
2017-06-10 19:45;123,4
2017-06-10 20:00;119,75
2017-06-10 20:15;118,85
2017-06-10 20:30;122,35
2017-06-10 20:45;122,3
2017-06-10 21:00;127,25
2017-06-10 21:15;123,8
2017-06-10 21:30;120
2017-06-10 21:45;122,45
2017-06-10 22:00;114,2
2017-06-10 22:15;114,65
2017-06-10 22:30;110,6
2017-06-10 22:45;109,4
2017-06-10 23:00;110,05
2017-06-10 23:15;104,35
2017-06-10 23:30;101,15
2017-06-10 23:45;101,75
2017-06-11 00:00;99,8
2017-06-11 00:15;99,9
2017-06-11 00:30;100,2
2017-06-11 00:45;97,95
2017-06-11 01:00;95,75
2017-06-11 01:15;98,3
2017-06-11 01:30;95,7
2017-06-11 01:45;94,6
2017-06-11 02:00;95
2017-06-11 02:15;96,7
2017-06-11 02:30;95,15
2017-06-11 02:45;94,55
2017-06-11 03:00;95,9
2017-06-11 03:15;94,3
2017-06-11 03:30;93,85
2017-06-11 03:45;95,15
2017-06-11 04:00;94,95
2017-06-11 04:15;92,55
2017-06-11 04:30;93,95
2017-06-11 04:45;95,3
2017-06-11 05:00;96,5
2017-06-11 05:15;97,6
2017-06-11 05:30;100,4
2017-06-11 05:45;103,8
2017-06-11 06:00;100,2
2017-06-11 06:15;98,65
2017-06-11 06:30;97,55
2017-06-11 06:45;94,45
2017-06-11 07:00;94,4
2017-06-11 07:15;92,3
2017-06-11 07:30;93
2017-06-11 07:45;90,95
2017-06-11 08:00;92,8
2017-06-11 08:15;89,85
2017-06-11 08:30;91,5
2017-06-11 08:45;93,5
2017-06-11 09:00;92,65
2017-06-11 09:15;93,05
2017-06-11 09:30;94,25
2017-06-11 09:45;94,25
2017-06-11 10:00;93,45
2017-06-11 10:15;93,85
2017-06-11 10:30;92,35
2017-06-11 10:45;92,15
2017-06-11 11:00;97,7
2017-06-11 11:15;98,7
2017-06-11 11:30;99,15
2017-06-11 11:45;100,55
2017-06-11 12:00;97,4
2017-06-11 12:15;98,7
2017-06-11 12:30;101,7
2017-06-11 12:45;103,05
2017-06-11 13:00;102,45
2017-06-11 13:15;101,9
2017-06-11 13:30;105,15
2017-06-11 13:45;107,85
2017-06-11 14:00;107,2
2017-06-11 14:15;106,7
2017-06-11 14:30;108,5
2017-06-11 14:45;104,3
2017-06-11 15:00;104,25
2017-06-11 15:15;105,75
2017-06-11 15:30;106,65
2017-06-11 15:45;103,85
2017-06-11 16:00;101,75
2017-06-11 16:15;101,05
2017-06-11 16:30;101,4
2017-06-11 16:45;99,8
2017-06-11 17:00;102,4
2017-06-11 17:15;102
2017-06-11 17:30;104,45
2017-06-11 17:45;100,85
2017-06-11 18:00;101
2017-06-11 18:15;98,25
2017-06-11 18:30;98,4
2017-06-11 18:45;90,95
2017-06-11 19:00;92,4
2017-06-11 19:15;91,25
2017-06-11 19:30;93,95
2017-06-11 19:45;93,35
2017-06-11 20:00;93,95
2017-06-11 20:15;95,85
2017-06-11 20:30;96,75
2017-06-11 20:45;97,8
2017-06-11 21:00;99,85
2017-06-11 21:15;100,3
2017-06-11 21:30;99,35
2017-06-11 21:45;99,4
2017-06-11 22:00;92,7
2017-06-11 22:15;94,6
2017-06-11 22:30;92,2
2017-06-11 22:45;91
2017-06-11 23:00;91,2
2017-06-11 23:15;92,1
2017-06-11 23:30;89,7
2017-06-11 23:45;87,65

